DL1NER Weather Reports


Display with metric or nautical units.
time (UTC)temp
F
wind
direction
speed
MPH
gust
MPH
rain 1hr
in
rain 24hr
in
rain mn
in
humidity
%
barometer
mb
20260505163013 57 258 5.0 13.0 0.06 0.06 0.06 77 1006.2
20260505162012 58 221 5.0 15.0 0.06 0.06 0.06 76 1006.3
20260505161013 58 239 5.0 13.0 0.04 0.04 0.04 74 1006.3
20260505153012 62 210 10.0 23.0 0.01 0.01 0.01 65 1005.9
20260505152012 67 200 9.0 25.0 0.00 0.00 0.00 59 1005.6
20260505151013 69 211 2.0 4.0 0.00 0.00 0.00 51 1004.7
20260505125012 76 145 2.0 4.0 0.00 0.00 0.00 40 1005.2
20260505124012 75 223 3.0 7.0 0.00 0.00 0.00 40 1005.4
20260505123012 75 278 3.0 8.0 0.00 0.00 0.00 46 1005.4
20260505122013 77 244 2.0 7.0 0.00 0.00 0.00 38 1005.6
20260505121012 76 215 2.0 5.0 0.00 0.00 0.00 39 1005.6
20260505120012 76 252 3.0 9.0 0.00 0.00 0.00 41 1005.7
20260505115012 76 294 2.0 8.0 0.00 0.00 0.00 44 1005.9
20260505114011 76 327 4.0 10.0 0.00 0.00 0.00 44 1005.9
20260505113012 74 242 3.0 8.0 0.00 0.00 0.00 45 1006.0
20260505112012 74 288 2.0 9.0 0.00 0.00 0.00 45 1006.0
20260505111012 74 92 2.0 6.0 0.00 0.00 0.00 45 1006.1
20260505102011 73 224 3.0 7.0 0.00 0.00 0.00 49 1006.7
20260505101011 73 279 2.0 7.0 0.00 0.00 0.00 49 1006.7
20260505100012 73 344 2.0 8.0 0.00 0.00 0.00 50 1006.8
20260505095011 71 247 2.0 6.0 0.00 0.00 0.00 50 1006.9
20260505094012 71 247 2.0 6.0 0.00 0.00 0.00 50 1006.9
20260505093012 72 279 3.0 6.0 0.00 0.00 0.00 50 1007.2
20260505092011 71 34 2.0 6.0 0.00 0.00 0.00 49 1007.2
20260505091011 71 344 3.0 8.0 0.00 0.00 0.00 51 1007.3
20260505090012 71 350 3.0 9.0 0.00 0.00 0.00 51 1007.5
20260505085011 70 360 2.0 8.0 0.00 0.00 0.00 50 1007.6
20260505084011 70 16 3.0 8.0 0.00 0.00 0.00 46 1007.7
20260505083012 70 24 3.0 7.0 0.00 0.00 0.00 52 1007.7
20260505082012 69 5 2.0 5.0 0.00 0.00 0.00 52 1007.8
20260505081010 67 336 2.0 4.0 0.00 0.00 0.00 55 1007.9
20260505080010 67 336 2.0 4.0 0.00 0.00 0.00 55 1007.9
20260505075011 67 325 1.0 3.0 0.00 0.00 0.00 55 1008.1
20260505074011 67 325 0.0 4.0 0.00 0.00 0.00 54 1008.2
20260505073011 67 323 2.0 5.0 0.00 0.00 0.00 52 1008.2
20260505072010 65 316 1.0 5.0 0.00 0.00 0.00 60 1008.4
20260505071011 65 316 1.0 5.0 0.00 0.00 0.00 60 1008.4
20260505070010 64 317 1.0 3.0 0.00 0.00 0.00 58 1008.6
20260505065010 62 321 1.0 4.0 0.00 0.00 0.00 59 1008.5
20260505064010 61 325 1.0 4.0 0.00 0.00 0.00 61 1008.6
20260505063010 61 325 2.0 4.0 0.00 0.00 0.00 63 1008.6
20260505062012 61 325 2.0 4.0 0.00 0.00 0.00 63 1008.6